Regional Weather Roundup
Issued by NWS

Home | Current Version | Previous Version | Text Only | Print | Product List | Glossary On
Versions: 1 2 3 4 5 6 7 8 9 10 11 12 13 14 15 16 17 18 19 20 21 22 23 24 25 26 27 28 29 30 31 32 33 34 35 36 37 38 39 40 41 42 43 44 45 46 47 48 49 50
646
ASUS43 KMKX 211011
RWRWI

WISCONSIN REGIONAL WEATHER ROUNDUP
NATIONAL WEATHER SERVICE MILWAUKEE/SULLIVAN WI
500 AM CDT THU SEP 21 2017

NOTE: "FAIR" INDICATES FEW OR NO CLOUDS BELOW 12,000 FEET WITH NO
SIGNIFICANT WEATHER AND/OR OBSTRUCTIONS TO VISIBILITY.

WIZ001-002-006>008-014>016-023>028-211100-
NORTHWEST WISCONSIN

CITY           SKY/WX    TMP DP  RH WIND       PRES   REMARKS
SUPERIOR ARPT  FOG       39  39 100 CALM      30.01F VSB 3/4
ASHLAND        CLEAR     45  44  97 CALM      30.03R
HAYWARD        CLEAR     41  39  93 CALM      30.04R
SIREN          CLEAR     42  41  98 CALM      30.03R
CUMBERLAND     CLEAR     45  45 100 CALM      30.02S
RICE LAKE      CLEAR     46  46  99 CALM      30.03S FOG
CHETEK         CLEAR     49  49 100 NW3       30.02R
LADYSMITH      CLEAR     50  49  97 CALM      30.04R
EAU CLAIRE     CLEAR     47  46  97 CALM      30.00R FOG
MENOMONIE      CLEAR     51  50  97 CALM      30.00S
NEW RICHMOND   CLEAR     46  46  99 CALM      30.01S
OSCEOLA        CLEAR     44  44 100 CALM      30.04R
$$

WIZ003>005-009-010-017-018-211100-
NORTH CENTRAL WISCONSIN

CITY           SKY/WX    TMP DP  RH WIND       PRES   REMARKS
MANITOWISH WTR FOG       43  43 100 CALM      30.03R VSB 3/4
ARBOR VITAE    FOG       51  49  95 CALM      30.02S VSB 1/4
WOODRUFF       FOG       51  49  95 CALM      30.02S VSB 1/4
RHINELANDER    CLEAR     54  54 100 CALM      30.03R
EAGLE RIVER    FOG       48  48 100 CALM      30.02S VSB 1/2
LAND O LAKES   FOG       47  47 100 CALM      30.04S VSB 1/4
PHILLIPS       FOG       44  44 100 CALM      30.02R VSB 1
TOMAHAWK       FOG       49  48  97 CALM      30.02R VSB<1/4
MEDFORD        CLEAR     53  52  97 NE3       30.00S
MERRILL          N/A     52  52 100 CALM      30.01R FOG
$$

WIZ029-030-035-036-043>047-211100-
CENTRAL WISCONSIN

CITY           SKY/WX    TMP DP  RH WIND       PRES   REMARKS
WAUSAU         CLEAR     60  58  92 N3        30.00R
MOSINEE        CLEAR    N/A N/A N/A N8        30.01R
MARSHFIELD     CLEAR     60  56  86 NE7       29.99R
STEVENS POINT  PTCLDY    60  60 100 N8        29.97F FOG
WAUPACA        FOG       68  68  98 N3        29.97S VSB 1/2
WAUTOMA        FOG       68  68 100 N5        29.95  VSB 1/2
WISC RAPIDS    CLEAR     62  61  96 N7        29.97F
CAMP DOUGLAS   CLEAR     59  59 100 W5        29.96S
$$

WIZ011>013-019>022-031-037>040-048>050-211100-
NORTHEAST WISCONSIN

CITY           SKY/WX    TMP DP  RH WIND       PRES   REMARKS
ANTIGO         CLEAR     58  58 100 N5        30.02R
SHAWANO        CLOUDY    67  65  96 N3        29.97S
OCONTO         CLOUDY    67  66  98 CALM      29.98R
STURGEON BAY   CLOUDY    67  66  97 N3        29.99R
GREEN BAY      CLOUDY    64  64 100 N5        29.96R FOG
MANITOWOC      NOT AVBL
APPLETON       CLOUDY    66  66 100 NW8       29.94S
CLINTONVILLE   NOT AVBL
OSHKOSH        MOCLDY    68  67  96 CALM      29.96R
$$

WIZ032>034-041-042-053>061-211100-
SOUTHWEST WISCONSIN

CITY           SKY/WX    TMP DP  RH WIND       PRES   REMARKS
LA CROSSE      NOT AVBL
SPARTA         FOG       54  54 100 CALM      29.98S VSB 1/4
VIROQUA        CLEAR     62  62 100 CALM      29.98R
BOSCOBEL       CLOUDY    70  68  93 CALM      29.96R FOG
PRAIRIE DU CHI CLOUDY    67  65  94 CALM      29.96R FOG
PLATTEVILLE    CLOUDY    68  68 100 CALM      29.97S
$$

WIZ056-057-062-063-064-067-068-211100-
SOUTH CENTRAL WISCONSIN

CITY           SKY/WX    TMP DP  RH WIND       PRES   REMARKS
REEDSBURG      FOG       66  66 100 SW3       29.95S VSB 1/4
BARABOO/DELLS  CLOUDY    68  67  96 W3        29.95S FOG
LONE ROCK      CLOUDY    70  70 100 CALM      29.95R FOG
MINERAL POINT  CLOUDY    70  70 100 CALM      29.97S FOG
MADISON        CLOUDY    72  70  93 SW6       29.95R
MIDDLETON      CLOUDY    71  71 100 CALM      29.97R
WATERTOWN      CLOUDY    68  68 100 CALM      29.95R
MONROE         CLOUDY    70  63  78 S5        29.97S
JANESVILLE     CLOUDY    70  70 100 CALM      29.95F
$$

WIZ051-052-058>065-066-070>072-211100-
SOUTHEAST WISCONSIN

CITY           SKY/WX    TMP DP  RH WIND       PRES   REMARKS
MILWAUKEE      CLOUDY    71  66  84 SW3       29.95R
WAUKESHA       MOCLDY    68  63  83 S3        29.97R
MILWAUKEE/TIMM CLOUDY    68  63  83 S3        29.97R
RACINE         CLOUDY    67  67 100 SW3       29.96R
BURLINGTON     CLOUDY    66  66 100 CALM      29.96R
KENOSHA        MOCLDY    69  65  86 CALM      29.96R
FOND DU LAC    CLOUDY    69  65  86 N6        29.97R
SHEBOYGAN      CLOUDY    67  67 100 E3        29.98R
WEST BEND        N/A     66  66 100 CALM      29.96R
JUNEAU         CLOUDY    66  66  98 CALM      29.97R
$$

LSZ147-162-211100-
LAKE SUPERIOR

STATION/POSITION TIME  TEMP    WIND        PRES    WAVE
                       AIR SEA DIR/SP/G            HT/PER
                 (UTC) (F)     (DEG/KT/KT) (MB)    (FT/S)
W MID LAKE BUOY  0950   56 53  340/  2/  4 1016.2R   1
DEVILS ISLAND    1000   58      40/  2/  3 1016.7R
PORT WING        0730          160/  3/  5 1016.3
SAXON HARBOR     0940   49     210/  5/  7 1016.3R
$$

LMZ867-665-643>646-211100-
LAKE MICHIGAN

STATION/POSITION TIME  TEMP    WIND        PRES    WAVE
                       AIR SEA DIR/SP/G            HT/PER
                 (UTC) (F)     (DEG/KT/KT) (MB)    (FT/S)
S GREEN BAY BUOY 1000   66 66  230/  2/  2 1014.9
N MID LAKE BUOY  0950   66 65   30/  6/  8 1015.1R   3/ 6
NORTHPORT PIER   0940   66     340/  7/ 11 1014.6R
KEWAUNEE LAKESHO 0948   64     150/  1/  2 1014.1R
SHEBOYGAN LAKESH 1000   68      80/ 16/ 16 1014.6R
PORT WASHINGTON  0930   68     180/  5/  8 1014.6R
ATWATER BUOY     0909   69 67  180/  8/ 10 1014.0R
MILWAUKEE LAKESH 0920   70     190/  6/  6   N/A
S MID LAKE BUOY  0950   70 69  210/  8/ 10 1014.1R   1/ 3
KENOSHA   LAKESH 1000   70     340/  6/  7 1014.2
$$

TC  - TEMPERATURE IN CELSIUS
VSB - VISIBILITY IN STATUTE MILES
WCI - WIND CHILL INDEX
HX  - HEAT INDEX





USA.gov is the U.S. government's official web portal to all federal, state and local government web resources and services.